カタログに戻る

ARIANE 3 DEB

LostHEO
NORAD 48350·DEBRIS·🇫🇷 France

打ち上げ Jul 21, 1988 から Guiana Space Centre

Loading…

次のパス (今後24時間)

TLE

古いSource: Space-Track

元期: Sep 4, 2025, 04:19 UTC

1 48350U 88063K   25247.17996790  .00070912  00000-0  84362-2 0  9997
2 48350   7.2459 133.6691 2848835 327.5055  17.7619  9.52156485291922

AllMySatでARIANE 3 DEBをリアルタイム追跡

Download on the App Store